GEO-KOMPSAT-2A

Last updated on Tue Jan 14 2025 00:02:18 GMT+0000 (Coordinated Universal Time)

1 43823U 18100A 25013.56438230 -.00000344 00000+0 00000+0 0 9992 2 43823 0.0279 115.1976 0000429 260.3992 69.0974 1.00271140 22416
UTC large
Height (km)
Speed (km/s)
/
Latitude / Longitude
Inclination (degrees)
Orbital Period (minutes)
Azimuth
Elevation
Range (km)
Doppler Factor

Next 0 passes for location: London (51.5072 / 0.1276)

Sorry there are no passes over London.